Flag for Russia Weather past 2 weeks in Nizhny Novgorod, Russia

Now
37 °F

Light rain. Low clouds.


Feels Like: 31 °F
Forecast: 46 / 66 °F
Wind: 8 mph from Southeast

Location: Nizhny Novgorod/Strigino

Current Time: Apr 27, 2015 at 7:15:03 AM

Latest Report: Apr 27, 2015 at 6:30 AM


Visibility: 6 mi

Pressure: 29.80 "Hg

Humidity: 93%

Dew point: 36 °F

Location of Nizhny NovgorodLocation

Historic Weather in Nizhny Novgorod — Graph

°F

Nizhny Novgorod temperature yesterday

Maximum temperature yesterday: 52 °F (at 3:00 PM)
Minimum temperature yesterday: 32 °F (at 5:00 AM)
Average temperature yesterday: 42 °F

Past Weeks' High & Low Weather Summary

 TemperatureHumidityPressure
High59 °F (Apr 14, 12:30 PM)100% (Apr 17, 8:30 AM)30.18 "Hg (Apr 17, 8:30 AM)
Low27 °F (Apr 19, 3:00 AM)23% (Apr 12, 4:00 PM)29.12 "Hg (Apr 24, 2:00 AM)
Average41 °F70%29.61 "Hg
* Reported Apr 12 5:00 AM — Apr 27 5:30 AM, Nizhny Novgorod, Weather by CustomWeather, © 2015

Note: Actual official high and low records may vary slightly from our data, if they occured in-between our weather recording intervals... More about our weather records

Advertising

Nizhny Novgorod weather history for previous 24 hours

 ConditionsComfort  
Time TempWeatherWind HumidityBarometerVisibility
5:30 AM
Mon, Apr 27
37 °FLight rain. Partly sunny.8 mph93%29.80 "Hg5 mi
5:00 AM37 °FLight rain. Passing clouds.6 mph93%29.80 "Hg4 mi
4:30 AM37 °FLight rain. Passing clouds.8 mph93%29.80 "Hg5 mi
4:00 AM37 °FLight rain. Passing clouds.8 mph93%29.80 "Hg4 mi
3:30 AM37 °FLight rain. Passing clouds.10 mph93%29.80 "Hg4 mi
3:00 AM39 °FLight rain. Passing clouds.6 mph87%29.80 "Hg4 mi
2:30 AM39 °FLight rain. Mostly cloudy.10 mph87%29.80 "Hg4 mi
2:00 AM39 °FLight rain. Mostly cloudy.10 mph87%29.80 "Hg5 mi
1:30 AM39 °FLight rain. Mostly cloudy.8 mph93%29.83 "Hg4 mi
1:00 AM39 °FLight rain. Mostly cloudy.6 mph93%29.83 "Hg4 mi
12:30 AM39 °FLight rain. Mostly cloudy.6 mph93%29.83 "Hg3 mi
12:00 AM41 °FLight rain. Mostly cloudy.6 mph81%29.83 "Hg2 mi
11:30 PM
Sun, Apr 26
41 °FLight rain. Mostly cloudy.10 mph76%29.83 "Hg4 mi
11:00 PM43 °FLight rain. Mostly cloudy.3 mph71%29.83 "Hg6 mi
10:30 PM45 °FLight rain. Mostly cloudy.6 mph61%29.83 "Hg6 mi
10:00 PM43 °FLight rain. Mostly cloudy.3 mph66%29.83 "HgN/A
9:30 PM45 °FLight rain. Mostly cloudy.3 mph61%29.83 "Hg6 mi
9:00 PM45 °FLight rain. Mostly cloudy.1 mph57%29.86 "Hg6 mi
8:30 PM46 °FLight rain. More clouds than sun.1 mph53%29.86 "HgN/A
8:00 PM46 °FBroken clouds.8 mph53%29.86 "Hg6 mi
7:30 PM48 °FBroken clouds.6 mph40%29.86 "HgN/A
7:00 PM48 °FBroken clouds.3 mph34%29.86 "Hg6 mi
6:30 PM48 °FBroken clouds.6 mph32%29.83 "HgN/A
6:00 PM50 °FBroken clouds.3 mph30%29.86 "HgN/A
5:30 PM50 °FBroken clouds.6 mph30%29.86 "HgN/A
5:00 PM50 °FBroken clouds.6 mph30%29.86 "HgN/A
4:30 PM50 °FBroken clouds.8 mph30%29.86 "HgN/A
4:00 PM50 °FBroken clouds.10 mph30%29.86 "HgN/A
3:30 PM50 °FBroken clouds.8 mph28%29.86 "HgN/A
3:00 PM52 °FBroken clouds.8 mph28%29.86 "HgN/A
2:30 PM50 °FBroken clouds.15 mph30%29.86 "HgN/A
2:00 PM50 °FPartly sunny.13 mph30%29.89 "Hg6 mi
1:30 PM48 °FPartly sunny.15 mph29%29.89 "HgN/A
1:00 PM48 °FPartly sunny.15 mph32%29.89 "Hg6 mi
12:30 PM46 °FPartly sunny.13 mph37%29.89 "HgN/A
12:00 PM46 °FPartly sunny.10 mph37%29.89 "HgN/A
11:30 AM45 °FPartly sunny.13 mph39%29.89 "Hg6 mi
11:00 AM46 °FPartly sunny.13 mph40%29.89 "Hg6 mi
10:30 AM45 °FPartly sunny.15 mph42%29.89 "HgN/A
10:00 AM43 °FPartly sunny.13 mph46%29.89 "HgN/A
9:30 AM43 °FPartly sunny.10 mph49%29.89 "Hg6 mi
9:00 AM41 °FPartly sunny.8 mph57%29.89 "Hg6 mi
8:30 AM41 °FScattered clouds.8 mph61%29.89 "Hg6 mi
8:00 AM39 °FPartly sunny.8 mph70%29.89 "Hg6 mi
7:30 AM37 °FPartly sunny.10 mph75%29.89 "Hg6 mi
7:00 AM36 °FPartly sunny.8 mph81%29.89 "Hg6 mi
Weather by CustomWeather, © 2015

See weather overviewHow to use our weather pages